When you browse on this site, cookies collect data to enhance your experience and personalize the content and advertising you see.
Visit our Privacy Policy to learn more. By continuing to use the site, you agree to this use of cookies and data.
  • In Lithuania
  • List of Countries
  • For 7 days
  • Water Temperature
  • Weather Map
  • Weather Widgets
  • user-avatar
    Login

    Hourly Weather Kolin

    Today, 20 September, Friday

    Time Temperature Precipitation Wind Pressure Humidity
    00:00 +8°C° 0 mm 1 mps 751 mmHg 80%
    01:00 +7°C° 0 mm 1 mps 751 mmHg 83%
    02:00 +7°C° 0 mm 1 mps 751 mmHg 84%
    03:00 +7°C° 0 mm 1 mps 751 mmHg 86%
    04:00 +6°C° 0 mm 1 mps 751 mmHg 88%
    05:00 +7°C° 0 mm 1 mps 751 mmHg 86%
    06:00 +8°C° 0 mm 1 mps 751 mmHg 84%
    07:00 +8°C° 0 mm 1 mps 751 mmHg 82%
    08:00 +10°C° 0 mm 1 mps 751 mmHg 74%
    09:00 +12°C° 0 mm 2 mps 751 mmHg 67%
    10:00 +14°C° 0 mm 2 mps 751 mmHg 60%
    11:00 +14°C° 0 mm 2 mps 751 mmHg 55%
    12:00 +15°C° 0 mm 2 mps 751 mmHg 51%
    13:00 +16°C° 0 mm 2 mps 750 mmHg 47%
    14:00 +16°C° 0 mm 2 mps 750 mmHg 47%
    15:00 +16°C° 0 mm 2 mps 750 mmHg 46%
    16:00 +16°C° 0 mm 2 mps 749 mmHg 46%
    17:00 +14°C° 0 mm 1 mps 749 mmHg 53%
    18:00 +13°C° 0 mm 1 mps 749 mmHg 59%
    19:00 +10°C° 0 mm 0 mps 749 mmHg 65%
    20:00 +9°C° 0 mm 0 mps 750 mmHg 67%
    21:00 +9°C° 0 mm 0 mps 750 mmHg 70%
    22:00 +8°C° 0 mm 0 mps 750 mmHg 72%
    23:00 +8°C° 0 mm 0 mps 750 mmHg 73%

    Tomorrow, 21 September, Saturday

    Time Temperature Precipitation Wind Pressure Humidity
    00:00 +9°C° 0 mm 1 mps 749 mmHg 75%
    01:00 +8°C° 0 mm 1 mps 749 mmHg 76%
    02:00 +8°C° 0 mm 1 mps 749 mmHg 77%
    03:00 +8°C° 0 mm 1 mps 749 mmHg 78%
    04:00 +7°C° 0 mm 1 mps 749 mmHg 80%
    05:00 +8°C° 0 mm 1 mps 748 mmHg 78%
    06:00 +9°C° 0 mm 1 mps 748 mmHg 76%
    07:00 +9°C° 0 mm 1 mps 748 mmHg 74%
    08:00 +11°C° 0 mm 1 mps 748 mmHg 66%
    09:00 +14°C° 0 mm 2 mps 748 mmHg 59%
    10:00 +16°C° 0 mm 2 mps 748 mmHg 51%
    11:00 +17°C° 0 mm 2 mps 748 mmHg 48%
    12:00 +18°C° 0 mm 2 mps 747 mmHg 45%
    13:00 +19°C° 0 mm 2 mps 747 mmHg 43%
    14:00 +19°C° 0 mm 3 mps 746 mmHg 44%
    15:00 +19°C° 0 mm 3 mps 746 mmHg 45%
    16:00 +19°C° 0 mm 3 mps 745 mmHg 46%
    17:00 +17°C° 0 mm 3 mps 745 mmHg 52%
    18:00 +15°C° 0 mm 2 mps 745 mmHg 58%
    19:00 +13°C° 0 mm 2 mps 745 mmHg 64%
    20:00 +12°C° 0 mm 2 mps 745 mmHg 64%
    21:00 +12°C° 0 mm 2 mps 745 mmHg 65%
    22:00 +10°C° 0 mm 2 mps 745 mmHg 66%
    23:00 +10°C° 0 mm 2 mps 745 mmHg 65%

    Day after tomorrow, 22 September, Sunday

    Time Temperature Precipitation Wind Pressure Humidity
    00:00 +9°C° 0 mm 3 mps 744 mmHg 65%
    01:00 +9°C° 0 mm 3 mps 744 mmHg 65%
    02:00 +9°C° 0 mm 3 mps 744 mmHg 65%
    03:00 +9°C° 0 mm 3 mps 743 mmHg 64%
    04:00 +8°C° 0 mm 3 mps 743 mmHg 64%
    05:00 +9°C° 0 mm 3 mps 743 mmHg 63%
    06:00 +9°C° 0 mm 3 mps 743 mmHg 62%
    07:00 +10°C° 0 mm 3 mps 743 mmHg 62%
    08:00 +12°C° 0 mm 4 mps 742 mmHg 55%
    09:00 +14°C° 0 mm 4 mps 742 mmHg 48%
    10:00 +17°C° 0 mm 5 mps 742 mmHg 41%
    11:00 +19°C° 0 mm 5 mps 742 mmHg 40%
    12:00 +20°C° 0 mm 5 mps 742 mmHg 39%
    13:00 +20°C° 0 mm 6 mps 741 mmHg 38%
    14:00 +20°C° 0 mm 5 mps 741 mmHg 40%
    15:00 +20°C° 0 mm 4 mps 740 mmHg 42%
    16:00 +20°C° 0 mm 4 mps 740 mmHg 44%
    17:00 +18°C° 0 mm 3 mps 740 mmHg 48%
    18:00 +16°C° 0 mm 3 mps 739 mmHg 53%
    19:00 +13°C° 0 mm 3 mps 739 mmHg 57%
    20:00 +13°C° 0 mm 3 mps 739 mmHg 58%
    21:00 +13°C° 0 mm 2 mps 739 mmHg 58%
    22:00 +13°C° 0 mm 2 mps 739 mmHg 59%
    23:00 +13°C° 0 mm 2 mps 738 mmHg 60%

    23 September, Monday

    Time Temperature Precipitation Wind Pressure Humidity
    00:00 +12°C° 0 mm 2 mps 738 mmHg 61%
    01:00 +12°C° 0 mm 2 mps 738 mmHg 63%
    02:00 +10°C° 0 mm 2 mps 738 mmHg 64%
    03:00 +11°C° 0 mm 1 mps 737 mmHg 64%
    04:00 +11°C° 0 mm 1 mps 737 mmHg 65%
    05:00 +11°C° 0 mm 1 mps 737 mmHg 66%
    06:00 +12°C° 0 mm 1 mps 737 mmHg 66%
    07:00 +12°C° 0 mm 1 mps 737 mmHg 66%
    08:00 +14°C° 0 mm 1 mps 737 mmHg 62%
    09:00 +16°C° 0 mm 1 mps 738 mmHg 58%
    10:00 +19°C° 0 mm 1 mps 738 mmHg 54%
    11:00 +20°C° 0 mm 1 mps 738 mmHg 52%
    12:00 +20°C° 0 mm 2 mps 737 mmHg 51%
    13:00 +21°C° 0 mm 2 mps 737 mmHg 49%
    14:00 +20°C° 0 mm 3 mps 737 mmHg 53%
    15:00 +20°C° 0 mm 3 mps 737 mmHg 57%
    16:00 +19°C° 0 mm 3 mps 737 mmHg 61%
    17:00 +18°C° 0 mm 3 mps 737 mmHg 67%
    18:00 +17°C° 0 mm 3 mps 738 mmHg 73%
    19:00 +16°C° 0 mm 3 mps 738 mmHg 78%
    20:00 +16°C° 0 mm 3 mps 738 mmHg 81%
    21:00 +16°C° 0 mm 3 mps 739 mmHg 84%
    22:00 +16°C° 0 mm 3 mps 739 mmHg 87%
    23:00 +16°C° 0.1 mm 3 mps 739 mmHg 87%

    24 September, Tuesday

    Time Temperature Precipitation Wind Pressure Humidity
    00:00 +14°C° 0.1 mm 3 mps 739 mmHg 88%
    01:00 +14°C° 0.1 mm 3 mps 739 mmHg 88%
    02:00 +14°C° 0 mm 3 mps 739 mmHg 90%
    03:00 +14°C° 0 mm 3 mps 739 mmHg 91%
    04:00 +13°C° 0 mm 3 mps 739 mmHg 93%
    05:00 +13°C° 0 mm 3 mps 740 mmHg 92%
    06:00 +14°C° 0 mm 3 mps 740 mmHg 90%
    07:00 +14°C° 0 mm 3 mps 740 mmHg 89%
    08:00 +14°C° 0 mm 3 mps 740 mmHg 89%
    09:00 +14°C° 0 mm 3 mps 741 mmHg 88%
    10:00 +14°C° 0 mm 3 mps 741 mmHg 87%
    11:00 +16°C° 0 mm 3 mps 741 mmHg 86%
    12:00 +16°C° 0 mm 3 mps 741 mmHg 84%
    13:00 +17°C° 0 mm 3 mps 741 mmHg 82%
    14:00 +17°C° 0 mm 2 mps 740 mmHg 81%
    15:00 +17°C° 0 mm 2 mps 740 mmHg 79%
    16:00 +18°C° 0 mm 2 mps 740 mmHg 77%
    17:00 +18°C° 0 mm 1 mps 740 mmHg 82%
    18:00 +15°C° 0 mm 1 mps 740 mmHg 86%
    19:00 +14°C° 0 mm 1 mps 740 mmHg 91%
    20:00 +14°C° 0 mm 1 mps 740 mmHg 91%
    21:00 +14°C° 0 mm 1 mps 739 mmHg 91%
    22:00 +14°C° 0 mm 1 mps 739 mmHg 91%
    23:00 +14°C° 0 mm 1 mps 739 mmHg 91%

    25 September, Wednesday

    Time Temperature Precipitation Wind Pressure Humidity
    00:00 +14°C° 0 mm 1 mps 739 mmHg 91%
    01:00 +14°C° 0 mm 1 mps 739 mmHg 91%
    02:00 +14°C° 0 mm 1 mps 738 mmHg 89%
    03:00 +14°C° 0 mm 1 mps 738 mmHg 88%
    04:00 +14°C° 0 mm 1 mps 738 mmHg 87%
    05:00 +14°C° 0 mm 2 mps 738 mmHg 86%
    06:00 +14°C° 0 mm 2 mps 737 mmHg 85%
    07:00 +15°C° 0 mm 2 mps 737 mmHg 85%
    08:00 +16°C° 0 mm 2 mps 737 mmHg 79%
    09:00 +17°C° 0 mm 3 mps 737 mmHg 74%
    10:00 +18°C° 0 mm 3 mps 737 mmHg 69%
    11:00 +18°C° 0 mm 3 mps 737 mmHg 70%
    12:00 +18°C° 0 mm 3 mps 737 mmHg 71%
    13:00 +18°C° 0 mm 3 mps 737 mmHg 72%
    14:00 +18°C° 0.1 mm 3 mps 737 mmHg 74%
    15:00 +18°C° 0.1 mm 3 mps 737 mmHg 75%
    16:00 +17°C° 0.1 mm 3 mps 737 mmHg 77%
    17:00 +16°C° 0.1 mm 3 mps 737 mmHg 80%
    18:00 +14°C° 0.1 mm 3 mps 737 mmHg 83%
    19:00 +13°C° 0.1 mm 3 mps 737 mmHg 85%
    20:00 +13°C° 0 mm 3 mps 737 mmHg 87%
    21:00 +12°C° 0 mm 3 mps 737 mmHg 89%
    22:00 +11°C° 0 mm 3 mps 738 mmHg 90%
    23:00 +12°C° 0 mm 2 mps 737 mmHg 90%
    Show more